When you browse on this site, cookies collect data to enhance your experience and personalize the content and advertising you see.
Visit our Privacy Policy to learn more. By continuing to use the site, you agree to this use of cookies and data.
  • In Belgien
  • Länderverzeichnis
  • Für 7 Tage
  • Wassertemperatur
  • Satellitenkarten
  • Wetterkarte
  • Widgets
  • user-avatar
    Anmelden

    Stündliche Wetter Suszow

    Heute, 16 Januar, Mittwoch

    Zeit Temperatur Niederschläge Wind Luftdruck Luftfeuchtigkeit
    00:00 -4°C° 0.4 mm 4 m/S 727 mmHg 93%
    01:00 -4°C° 0.4 mm 5 m/S 727 mmHg 93%
    02:00 -3°C° 0 mm 4 m/S 725 mmHg 94%
    03:00 -3°C° 0.8 mm 6 m/S 725 mmHg 93%
    04:00 -2°C° 0.8 mm 8 m/S 725 mmHg 92%
    05:00 -2°C° 0.8 mm 11 m/S 725 mmHg 91%
    06:00 -2°C° 0.1 mm 10 m/S 726 mmHg 89%
    07:00 -1°C° 0.1 mm 9 m/S 727 mmHg 88%
    08:00 -3°C° 0.1 mm 9 m/S 728 mmHg 86%
    09:00 -2°C° 0 mm 7 m/S 729 mmHg 87%
    10:00 -2°C° 0 mm 6 m/S 730 mmHg 87%
    11:00 -2°C° 0 mm 5 m/S 731 mmHg 87%
    12:00 -2°C° 0 mm 4 m/S 731 mmHg 89%
    13:00 -1°C° 0 mm 3 m/S 732 mmHg 92%
    14:00 -1°C° 0 mm 2 m/S 732 mmHg 94%
    15:00 -1°C° 0 mm 2 m/S 733 mmHg 94%
    16:00 -1°C° 0 mm 2 m/S 733 mmHg 95%
    17:00 -1°C° 0 mm 2 m/S 733 mmHg 95%
    18:00 -1°C° 0.1 mm 3 m/S 733 mmHg 96%
    19:00 0°C° 0.1 mm 3 m/S 733 mmHg 97%
    20:00 -1°C° 0.1 mm 4 m/S 733 mmHg 98%
    21:00 -1°C° 0 mm 4 m/S 733 mmHg 97%
    22:00 -1°C° 0 mm 4 m/S 733 mmHg 97%
    23:00 -1°C° 0 mm 4 m/S 734 mmHg 96%

    Morgen, 17 Januar, Donnerstag

    Zeit Temperatur Niederschläge Wind Luftdruck Luftfeuchtigkeit
    00:00 -1°C° 0 mm 4 m/S 733 mmHg 95%
    01:00 -2°C° 0 mm 4 m/S 733 mmHg 94%
    02:00 -3°C° 0 mm 4 m/S 733 mmHg 92%
    03:00 -2°C° 0 mm 4 m/S 733 mmHg 91%
    04:00 -2°C° 0 mm 4 m/S 732 mmHg 91%
    05:00 -2°C° 0 mm 4 m/S 732 mmHg 90%
    06:00 -2°C° 0 mm 5 m/S 732 mmHg 87%
    07:00 -2°C° 0 mm 6 m/S 732 mmHg 84%
    08:00 -2°C° 0 mm 6 m/S 732 mmHg 82%
    09:00 -2°C° 0 mm 7 m/S 731 mmHg 82%
    10:00 -1°C° 0 mm 7 m/S 731 mmHg 82%
    11:00 -1°C° 0 mm 7 m/S 731 mmHg 83%
    12:00 -1°C° 0 mm 7 m/S 731 mmHg 84%
    13:00 -1°C° 0 mm 7 m/S 731 mmHg 85%
    14:00 -1°C° 0 mm 7 m/S 731 mmHg 87%
    15:00 -1°C° 0 mm 6 m/S 731 mmHg 85%
    16:00 -1°C° 0 mm 6 m/S 731 mmHg 84%
    17:00 -1°C° 0 mm 6 m/S 731 mmHg 83%
    18:00 -2°C° 0 mm 6 m/S 731 mmHg 83%
    19:00 -2°C° 0 mm 6 m/S 731 mmHg 83%
    20:00 -2°C° 0 mm 6 m/S 731 mmHg 84%
    21:00 -2°C° 0 mm 6 m/S 731 mmHg 85%
    22:00 -1°C° 0 mm 6 m/S 731 mmHg 86%
    23:00 -1°C° 0 mm 6 m/S 731 mmHg 86%

    übermorgen, 18 Januar, Freitag

    Zeit Temperatur Niederschläge Wind Luftdruck Luftfeuchtigkeit
    00:00 -1°C° 0.1 mm 6 m/S 731 mmHg 87%
    01:00 -1°C° 0.1 mm 6 m/S 731 mmHg 88%
    02:00 -1°C° 0.1 mm 6 m/S 731 mmHg 88%
    03:00 -1°C° 0 mm 6 m/S 731 mmHg 88%
    04:00 -1°C° 0 mm 6 m/S 731 mmHg 87%
    05:00 -1°C° 0 mm 6 m/S 731 mmHg 86%
    06:00 -1°C° 0 mm 5 m/S 732 mmHg 86%
    07:00 -1°C° 0 mm 5 m/S 732 mmHg 86%
    08:00 -1°C° 0 mm 5 m/S 732 mmHg 86%
    09:00 -3°C° 0 mm 6 m/S 733 mmHg 82%
    10:00 -3°C° 0 mm 7 m/S 733 mmHg 79%
    11:00 -4°C° 0 mm 8 m/S 734 mmHg 75%
    12:00 -4°C° 0 mm 8 m/S 734 mmHg 74%
    13:00 -4°C° 0 mm 8 m/S 735 mmHg 74%
    14:00 -4°C° 0 mm 8 m/S 735 mmHg 73%
    15:00 -4°C° 0 mm 8 m/S 736 mmHg 75%
    16:00 -3°C° 0 mm 7 m/S 737 mmHg 78%
    17:00 -3°C° 0 mm 7 m/S 738 mmHg 81%
    18:00 -4°C° 0 mm 6 m/S 738 mmHg 83%
    19:00 -4°C° 0 mm 5 m/S 739 mmHg 84%
    20:00 -4°C° 0 mm 4 m/S 740 mmHg 86%
    21:00 -4°C° 0 mm 4 m/S 740 mmHg 87%
    22:00 -4°C° 0 mm 3 m/S 741 mmHg 88%
    23:00 -5°C° 0 mm 3 m/S 741 mmHg 89%

    19 Januar, Samstag

    Zeit Temperatur Niederschläge Wind Luftdruck Luftfeuchtigkeit
    00:00 -5°C° 0 mm 3 m/S 742 mmHg 90%
    01:00 -5°C° 0 mm 3 m/S 742 mmHg 90%
    02:00 -5°C° 0 mm 2 m/S 743 mmHg 90%
    03:00 -5°C° 0 mm 2 m/S 743 mmHg 91%
    04:00 -5°C° 0 mm 2 m/S 743 mmHg 91%
    05:00 -5°C° 0 mm 2 m/S 743 mmHg 92%
    06:00 -5°C° 0 mm 2 m/S 743 mmHg 92%
    07:00 -5°C° 0 mm 2 m/S 743 mmHg 91%
    08:00 -5°C° 0 mm 2 m/S 743 mmHg 91%
    09:00 -5°C° 0 mm 2 m/S 743 mmHg 90%
    10:00 -4°C° 0 mm 2 m/S 743 mmHg 89%
    11:00 -5°C° 0 mm 3 m/S 744 mmHg 88%
    12:00 -3°C° 0 mm 2 m/S 743 mmHg 86%
    13:00 -3°C° 0 mm 2 m/S 743 mmHg 85%
    14:00 -2°C° 0 mm 2 m/S 743 mmHg 83%
    15:00 -3°C° 0 mm 2 m/S 743 mmHg 85%
    16:00 -3°C° 0 mm 2 m/S 742 mmHg 87%
    17:00 -2°C° 0 mm 1 m/S 742 mmHg 88%
    18:00 -2°C° 0 mm 1 m/S 742 mmHg 88%
    19:00 -3°C° 0 mm 1 m/S 742 mmHg 89%
    20:00 -3°C° 0 mm 1 m/S 742 mmHg 89%
    21:00 -3°C° 0 mm 1 m/S 742 mmHg 88%
    22:00 -3°C° 0 mm 1 m/S 742 mmHg 87%
    23:00 -3°C° 0 mm 1 m/S 742 mmHg 86%

    20 Januar, Sonntag

    Zeit Temperatur Niederschläge Wind Luftdruck Luftfeuchtigkeit
    00:00 -3°C° 0 mm 1 m/S 742 mmHg 86%
    01:00 -3°C° 0 mm 1 m/S 742 mmHg 86%
    02:00 -4°C° 0 mm 1 m/S 741 mmHg 86%
    03:00 -4°C° 0 mm 1 m/S 741 mmHg 86%
    04:00 -4°C° 0 mm 1 m/S 741 mmHg 86%
    05:00 -4°C° 0 mm 1 m/S 740 mmHg 86%
    06:00 -4°C° 0 mm 1 m/S 740 mmHg 87%
    07:00 -4°C° 0 mm 1 m/S 740 mmHg 87%
    08:00 -4°C° 0 mm 1 m/S 740 mmHg 87%
    09:00 -4°C° 0 mm 1 m/S 740 mmHg 86%
    10:00 -4°C° 0 mm 0 m/S 741 mmHg 84%
    11:00 -4°C° 0 mm 0 m/S 741 mmHg 83%
    12:00 -2°C° 0 mm 1 m/S 741 mmHg 82%
    13:00 -2°C° 0 mm 1 m/S 740 mmHg 81%
    14:00 -1°C° 0 mm 1 m/S 740 mmHg 80%
    15:00 -4°C° 0 mm 2 m/S 740 mmHg 82%
    16:00 -4°C° 0 mm 2 m/S 740 mmHg 85%
    17:00 -5°C° 0 mm 2 m/S 740 mmHg 87%
    18:00 -5°C° 0 mm 2 m/S 740 mmHg 88%
    19:00 -5°C° 0 mm 2 m/S 741 mmHg 89%
    20:00 -6°C° 0 mm 3 m/S 741 mmHg 90%
    21:00 -7°C° 0 mm 3 m/S 741 mmHg 91%
    22:00 -7°C° 0 mm 3 m/S 741 mmHg 91%
    23:00 -7°C° 0 mm 3 m/S 741 mmHg 92%

    21 Januar, Montag

    Zeit Temperatur Niederschläge Wind Luftdruck Luftfeuchtigkeit
    00:00 -7°C° 0 mm 3 m/S 742 mmHg 93%
    01:00 -8°C° 0 mm 4 m/S 742 mmHg 93%
    02:00 -8°C° 0 mm 4 m/S 742 mmHg 94%
    03:00 -8°C° 0 mm 4 m/S 743 mmHg 93%
    04:00 -8°C° 0 mm 4 m/S 743 mmHg 93%
    05:00 -9°C° 0 mm 4 m/S 743 mmHg 92%
    06:00 -8°C° 0 mm 3 m/S 744 mmHg 92%
    07:00 -8°C° 0 mm 3 m/S 744 mmHg 92%
    08:00 -9°C° 0 mm 3 m/S 745 mmHg 91%
    09:00 -8°C° 0 mm 3 m/S 746 mmHg 90%
    10:00 -8°C° 0 mm 4 m/S 746 mmHg 88%
    11:00 -7°C° 0 mm 4 m/S 747 mmHg 87%
    12:00 -7°C° 0 mm 4 m/S 747 mmHg 86%
    13:00 -5°C° 0 mm 4 m/S 747 mmHg 85%
    14:00 -6°C° 0 mm 5 m/S 747 mmHg 84%
    15:00 -5°C° 0 mm 4 m/S 747 mmHg 84%
    16:00 -5°C° 0 mm 4 m/S 748 mmHg 84%
    17:00 -5°C° 0 mm 4 m/S 748 mmHg 84%
    18:00 -6°C° 0 mm 3 m/S 748 mmHg 85%
    19:00 -6°C° 0 mm 3 m/S 748 mmHg 86%
    20:00 -6°C° 0 mm 2 m/S 749 mmHg 87%
    21:00 -6°C° 0 mm 2 m/S 749 mmHg 88%
    22:00 -6°C° 0 mm 2 m/S 749 mmHg 90%
    23:00 -7°C° 0 mm 2 m/S 749 mmHg 91%
    Mehr zeigen